This is the latest recevied weather packets stored in our database for station/object KQ4PPF. If no packets are shown the sender has not sent any weather packets the latest 10 day(s).
| Time | Temp. | Humidity | Pressure | Rain* | Wind** | Luminosity | Snow |
|---|---|---|---|---|---|---|---|
| 1777856331 | 13.89° C | 68% | 1016.2 hPa | 0 mm | - | 0 W/m² | - |
| 1777856028 | 13.89° C | 67% | 1016.1 hPa | 0 mm | - | 0 W/m² | - |
| 1777855725 | 13.89° C | 65% | 1016.1 hPa | 0 mm | - | 0 W/m² | - |
| 1777855423 | 14.44° C | 66% | 1016.2 hPa | 0 mm | - | 0 W/m² | - |
| 1777855119 | 14.44° C | 66% | 1016.1 hPa | 0 mm | - | 0 W/m² | - |
| 1777854816 | 14.44° C | 65% | 1016.2 hPa | 0 mm | - | 0 W/m² | - |
| 1777854513 | 15° C | 64% | 1016.2 hPa | 0 mm | - | 0 W/m² | - |
| 1777854209 | 15° C | 65% | 1016 hPa | 0 mm | - | 0 W/m² | - |
| 1777853907 | 15° C | 62% | 1015.9 hPa | 0 mm | - | 2 W/m² | - |
| 1777853604 | 15.56° C | 62% | 1016.1 hPa | 0 mm | - | 3 W/m² | - |
| 1777853301 | 15.56° C | 62% | 1016.2 hPa | 0 mm | - | 4 W/m² | - |
| 1777852998 | 15.56° C | 59% | 1016.2 hPa | 0 mm | - | 5 W/m² | - |
| 1777852696 | 16.11° C | 59% | 1016 hPa | 0 mm | - | 7 W/m² | - |
| 1777852393 | 16.11° C | 57% | 1016.2 hPa | 0 mm | - | 9 W/m² | - |
| 1777852091 | 16.67° C | 56% | 1016.2 hPa | 0 mm | - | 10 W/m² | - |
| 1777851788 | 16.67° C | 54% | 1016 hPa | 0 mm | - | 11 W/m² | - |
| 1777851486 | 16.67° C | 52% | 1016.3 hPa | 0 mm | - | 12 W/m² | - |
| 1777851181 | 17.22° C | 53% | 1016.1 hPa | 0 mm | - | 13 W/m² | - |
| 1777850878 | 17.22° C | 52% | 1016.1 hPa | 0 mm | - | 14 W/m² | - |
| 1777850576 | 17.22° C | 50% | 1016.3 hPa | 0 mm | - | 15 W/m² | - |
| 1777850274 | 17.78° C | 52% | 1016.3 hPa | 0 mm | - | 16 W/m² | - |
| 1777849970 | 17.78° C | 50% | 1016.3 hPa | 0 mm | - | 16 W/m² | - |
| 1777849666 | 18.33° C | 49% | 1016.2 hPa | 0 mm | - | 17 W/m² | - |
| 1777849364 | 18.33° C | 47% | 1016.3 hPa | 0 mm | - | 18 W/m² | - |
| 1777849061 | 18.33° C | 47% | 1016.6 hPa | 0 mm | - | 19 W/m² | - |
* Rain latest hour (hover to see other rain measurements)
** Current wind speed in m/s (hover to see current wind gust speed)